Location: Hartman Creek State Park
(44.3257°N, 89.2134°W)
Time: 11:55:35
(UTC-05:00)

Terra - Visible Passes

Search period start: 30 July 2016 00:00
Search period end: 09 August 2016 00:00
Orbit: 702 x 703 km, 98.2° (Epoch: 30 July)

Date Brightness Start Highest point End Pass type
(mag) Time Alt. Az. Time Alt. Az. Time Alt. Az.
30 Jul 4.1 00:19:00 13° WSW 00:19:54 14° W 00:22:24 10° WNW visible
30 Jul 3.4 21:44:32 15° ESE 21:47:03 22° ENE 21:50:38 10° NNE visible
30 Jul 2.5 23:23:26 40° SW 23:24:28 47° W 23:29:05 10° NNW visible
31 Jul 2.1 22:27:52 35° SE 22:29:29 51° ENE 22:34:07 10° N visible
01 Aug 3.8 00:06:45 18° WSW 00:07:32 19° W 00:10:51 10° NW visible
01 Aug 3.7 21:32:18 11° E 21:34:57 17° ENE 21:37:59 10° NNE visible
01 Aug 2.1 23:11:11 49° SSW 23:12:12 62° W 23:16:56 10° NNW visible
02 Aug 2.5 22:15:38 29° ESE 22:17:19 39° ENE 22:21:45 10° N visible
02 Aug 3.4 23:54:31 23° WSW 23:55:11 24° W 23:59:03 10° NW visible
03 Aug 3.9 21:20:37 10° E 21:22:53 13° ENE 21:25:08 10° NNE visible
03 Aug 1.8 22:58:57 56° S 22:59:57 82° WSW 23:04:45 10° NNW visible
04 Aug 2.9 22:03:24 24° ESE 22:05:10 31° ENE 22:09:20 10° N visible
04 Aug 3.0 23:42:17 30° WSW 23:42:52 31° W 23:47:06 10° NNW visible
05 Aug 4.1 21:10:04 10° ENE 21:10:50 10° ENE 21:11:36 10° NE visible
05 Aug 1.7 22:46:44 55° SE 22:47:43 77° ENE 22:52:30 10° N visible
06 Aug 4.2 00:25:37 12° W 00:26:01 12° W 00:27:56 10° WNW visible
06 Aug 3.2 21:51:10 19° E 21:53:02 24° ENE 21:56:50 10° NNE visible
06 Aug 2.6 23:30:04 39° WSW 23:30:33 41° W 23:35:04 10° NNW visible
07 Aug 2.0 22:34:31 47° ESE 22:35:31 59° ENE 22:40:13 10° N visible
08 Aug 4.0 00:13:24 16° W 00:13:38 16° W 00:16:36 10° NW visible
08 Aug 3.5 21:38:57 15° E 21:40:56 19° ENE 21:44:15 10° NNE visible
08 Aug 2.2 23:17:51 52° WSW 23:18:16 54° W 23:22:56 10° NNW visible
